Time,TemperatureF,DewpointF,PressureIn,WindDirection,WindDirectionDegrees,WindSpeedMPH,WindSpeedGustMPH,Humidity,HourlyPrecipIn,Conditions,Clouds,dailyrainin,SoftwareType,DateUTC
2013-05-29 00:01:00,76.0,34.0,29.58,WSW,242,5.0,11.0,22,0.00,,,0.00,,2013-05-29 07:01:00,
2013-05-29 00:11:00,76.0,34.0,29.58,WSW,242,5.0,11.0,22,0.00,,,0.00,,2013-05-29 07:11:00,
2013-05-29 00:21:00,75.0,35.0,29.59,WSW,249,2.0,6.0,23,0.00,,,0.00,,2013-05-29 07:21:00,
2013-05-29 00:32:00,74.0,35.0,29.59,WSW,242,1.0,6.0,24,0.00,,,0.00,,2013-05-29 07:32:00,
2013-05-29 00:41:00,74.0,35.0,29.59,WSW,242,1.0,6.0,24,0.00,,,0.00,,2013-05-29 07:41:00,
2013-05-29 00:52:00,71.0,34.0,29.59,WSW,242,0.0,1.0,26,0.00,,,0.00,,2013-05-29 07:52:00,
2013-05-29 01:02:00,70.0,34.0,29.59,WSW,242,0.0,1.0,27,0.00,,,0.00,,2013-05-29 08:02:00,
2013-05-29 01:11:00,70.0,34.0,29.59,WSW,242,0.0,1.0,27,0.00,,,0.00,,2013-05-29 08:11:00,
2013-05-29 01:21:00,68.0,35.0,29.59,WSW,242,0.0,0.0,30,0.00,,,0.00,,2013-05-29 08:21:00,
2013-05-29 01:31:00,66.0,34.0,29.59,SSW,197,0.0,0.0,31,0.00,,,0.00,,2013-05-29 08:31:00,
2013-05-29 01:41:00,66.0,34.0,29.59,SSW,197,0.0,0.0,31,0.00,,,0.00,,2013-05-29 08:41:00,
2013-05-29 01:52:00,65.0,34.0,29.59,SSW,192,0.0,2.0,32,0.00,,,0.00,,2013-05-29 08:52:00,
2013-05-29 02:01:00,65.0,34.0,29.59,South,190,0.0,2.0,32,0.00,,,0.00,,2013-05-29 09:01:00,
2013-05-29 02:11:00,65.0,34.0,29.59,South,190,0.0,2.0,32,0.00,,,0.00,,2013-05-29 09:11:00,
2013-05-29 02:21:00,64.0,34.0,29.59,South,190,0.0,0.0,33,0.00,,,0.00,,2013-05-29 09:21:00,
2013-05-29 02:32:00,63.0,34.0,29.59,South,190,0.0,0.0,34,0.00,,,0.00,,2013-05-29 09:32:00,
2013-05-29 02:42:00,63.0,34.0,29.59,South,190,0.0,0.0,34,0.00,,,0.00,,2013-05-29 09:42:00,
2013-05-29 02:52:00,62.0,35.0,29.60,South,190,0.0,0.0,36,0.00,,,0.00,,2013-05-29 09:52:00,
2013-05-29 03:02:00,62.0,35.0,29.59,South,190,0.0,1.0,36,0.00,,,0.00,,2013-05-29 10:02:00,
2013-05-29 03:12:00,62.0,35.0,29.59,South,190,0.0,1.0,36,0.00,,,0.00,,2013-05-29 10:12:00,
2013-05-29 03:22:00,62.0,34.0,29.60,South,190,0.0,2.0,35,0.00,,,0.00,,2013-05-29 10:22:00,
2013-05-29 03:32:00,62.0,34.0,29.59,South,171,0.0,2.0,35,0.00,,,0.00,,2013-05-29 10:32:00,
2013-05-29 03:42:00,62.0,34.0,29.59,South,171,0.0,2.0,35,0.00,,,0.00,,2013-05-29 10:42:00,
2013-05-29 03:53:00,62.0,34.0,29.59,SSE,166,0.0,2.0,35,0.00,,,0.00,,2013-05-29 10:53:00,
2013-05-29 04:02:00,63.0,34.0,29.59,SSE,166,0.0,1.0,34,0.00,,,0.00,,2013-05-29 11:02:00,
2013-05-29 04:11:00,63.0,34.0,29.59,SSE,166,0.0,1.0,34,0.00,,,0.00,,2013-05-29 11:11:00,
2013-05-29 04:21:00,62.0,34.0,29.59,SSE,165,0.0,2.0,35,0.00,,,0.00,,2013-05-29 11:21:00,
2013-05-29 04:32:00,62.0,34.0,29.59,SSE,165,0.0,0.0,35,0.00,,,0.00,,2013-05-29 11:32:00,
2013-05-29 04:41:00,62.0,34.0,29.59,SSE,165,0.0,0.0,35,0.00,,,0.00,,2013-05-29 11:41:00,
2013-05-29 04:52:00,61.0,34.0,29.60,SSE,165,0.0,1.0,36,0.00,,,0.00,,2013-05-29 11:52:00,
2013-05-29 05:01:00,61.0,35.0,29.60,SSE,163,0.0,2.0,37,0.00,,,0.00,,2013-05-29 12:01:00,
2013-05-29 05:11:00,61.0,35.0,29.60,SSE,163,0.0,2.0,37,0.00,,,0.00,,2013-05-29 12:11:00,
2013-05-29 05:21:00,62.0,35.0,29.61,SE,136,0.0,2.0,37,0.00,,,0.00,,2013-05-29 12:21:00,
2013-05-29 05:32:00,62.0,35.0,29.61,SE,136,1.0,2.0,37,0.00,,,0.00,,2013-05-29 12:32:00,
2013-05-29 05:41:00,62.0,35.0,29.61,SE,136,1.0,2.0,37,0.00,,,0.00,,2013-05-29 12:41:00,
2013-05-29 05:52:00,61.0,35.0,29.61,SE,136,0.0,2.0,37,0.00,,,0.00,,2013-05-29 12:52:00,
2013-05-29 06:01:00,62.0,36.0,29.62,SE,136,1.0,2.0,38,0.00,,,0.00,,2013-05-29 13:01:00,
2013-05-29 06:11:00,62.0,36.0,29.62,SE,136,1.0,2.0,38,0.00,,,0.00,,2013-05-29 13:11:00,
2013-05-29 06:21:00,65.0,37.0,29.62,SE,136,1.0,2.0,35,0.00,,,0.00,,2013-05-29 13:21:00,
2013-05-29 06:31:00,67.0,38.0,29.63,SE,136,0.0,1.0,34,0.00,,,0.00,,2013-05-29 13:31:00,
2013-05-29 06:42:00,67.0,38.0,29.63,SE,136,0.0,1.0,34,0.00,,,0.00,,2013-05-29 13:42:00,
2013-05-29 06:53:00,70.0,41.0,29.63,SE,136,0.0,0.0,35,0.00,,,0.00,,2013-05-29 13:53:00,
2013-05-29 07:01:00,71.0,40.0,29.64,SE,136,0.0,0.0,32,0.00,,,0.00,,2013-05-29 14:01:00,
2013-05-29 07:11:00,71.0,40.0,29.64,SE,136,0.0,0.0,32,0.00,,,0.00,,2013-05-29 14:11:00,
2013-05-29 07:21:00,74.0,39.0,29.64,SE,136,0.0,0.0,28,0.00,,,0.00,,2013-05-29 14:21:00,
2013-05-29 07:31:00,75.0,36.0,29.64,SE,138,0.0,2.0,24,0.00,,,0.00,,2013-05-29 14:31:00,
2013-05-29 07:41:00,75.0,36.0,29.64,SE,138,0.0,2.0,24,0.00,,,0.00,,2013-05-29 14:41:00,
2013-05-29 07:52:00,76.0,34.0,29.64,NNW,334,0.0,3.0,22,0.00,,,0.00,,2013-05-29 14:52:00,
2013-05-29 08:01:00,77.0,35.0,29.65,NW,307,1.0,6.0,22,0.00,,,0.00,,2013-05-29 15:01:00,
2013-05-29 08:11:00,78.0,35.0,29.65,NW,324,2.0,7.0,21,0.00,,,0.00,,2013-05-29 15:11:00,
2013-05-29 08:21:00,78.0,35.0,29.65,NW,324,2.0,7.0,21,0.00,,,0.00,,2013-05-29 15:21:00,
2013-05-29 08:32:00,79.0,36.0,29.65,West,276,2.0,6.0,21,0.00,,,0.00,,2013-05-29 15:32:00,
2013-05-29 08:42:00,79.0,36.0,29.65,West,276,2.0,6.0,21,0.00,,,0.00,,2013-05-29 15:42:00,
2013-05-29 08:53:00,79.0,36.0,29.65,SW,230,2.0,6.0,21,0.00,,,0.00,,2013-05-29 15:53:00,
2013-05-29 09:03:00,80.0,35.0,29.65,WSW,243,1.0,4.0,20,0.00,,,0.00,,2013-05-29 16:03:00,
2013-05-29 09:12:00,80.0,35.0,29.65,WSW,243,1.0,4.0,20,0.00,,,0.00,,2013-05-29 16:12:00,
2013-05-29 09:22:00,81.0,35.0,29.65,WNW,282,3.0,7.0,19,0.00,,,0.00,,2013-05-29 16:22:00,
2013-05-29 09:32:00,82.0,36.0,29.64,West,275,2.0,7.0,19,0.00,,,0.00,,2013-05-29 16:32:00,
2013-05-29 09:42:00,82.0,36.0,29.64,West,275,2.0,7.0,19,0.00,,,0.00,,2013-05-29 16:42:00,
2013-05-29 09:52:00,82.0,36.0,29.64,SW,222,2.0,7.0,19,0.00,,,0.00,,2013-05-29 16:52:00,
2013-05-29 10:02:00,84.0,36.0,29.65,South,191,3.0,7.0,18,0.00,,,0.00,,2013-05-29 17:02:00,
2013-05-29 10:11:00,84.0,36.0,29.65,South,191,3.0,7.0,18,0.00,,,0.00,,2013-05-29 17:11:00,
2013-05-29 10:21:00,84.0,36.0,29.64,South,171,3.0,7.0,18,0.00,,,0.00,,2013-05-29 17:21:00,
2013-05-29 10:32:00,85.0,37.0,29.64,SSW,205,2.0,8.0,18,0.00,,,0.00,,2013-05-29 17:32:00,
2013-05-29 10:42:00,85.0,37.0,29.64,SSW,205,2.0,8.0,18,0.00,,,0.00,,2013-05-29 17:42:00,
2013-05-29 10:52:00,85.0,39.0,29.64,SSW,209,2.0,8.0,20,0.00,,,0.00,,2013-05-29 17:52:00,
2013-05-29 11:01:00,86.0,39.0,29.65,SSW,198,4.0,10.0,19,0.00,,,0.00,,2013-05-29 18:01:00,
2013-05-29 11:13:00,86.0,40.0,29.64,NW,323,3.0,9.0,20,0.00,,,0.00,,2013-05-29 18:13:00,
2013-05-29 11:21:00,86.0,40.0,29.64,NW,323,3.0,9.0,20,0.00,,,0.00,,2013-05-29 18:21:00,
2013-05-29 11:32:00,87.0,41.0,29.64,SSW,208,3.0,9.0,20,0.00,,,0.00,,2013-05-29 18:32:00,
2013-05-29 11:41:00,87.0,41.0,29.64,SSW,208,3.0,9.0,20,0.00,,,0.00,,2013-05-29 18:41:00,
2013-05-29 11:52:00,87.0,40.0,29.63,WNW,284,3.0,11.0,19,0.00,,,0.00,,2013-05-29 18:52:00,
2013-05-29 12:01:00,88.0,39.0,29.63,NNE,22,4.0,10.0,18,0.00,,,0.00,,2013-05-29 19:01:00,
2013-05-29 12:11:00,88.0,39.0,29.63,NW,319,6.0,14.0,18,0.00,,,0.00,,2013-05-29 19:11:00,
2013-05-29 12:21:00,88.0,39.0,29.63,NW,319,6.0,14.0,18,0.00,,,0.00,,2013-05-29 19:21:00,
2013-05-29 12:32:00,88.0,39.0,29.62,WSW,245,3.0,11.0,18,0.00,,,0.00,,2013-05-29 19:32:00,
2013-05-29 12:44:00,90.0,39.0,29.62,WNW,299,5.0,16.0,17,0.00,,,0.00,,2013-05-29 19:44:00,
2013-05-29 12:53:00,90.0,39.0,29.62,WNW,299,5.0,16.0,17,0.00,,,0.00,,2013-05-29 19:53:00,
2013-05-29 13:02:00,89.0,38.0,29.61,SSW,196,4.0,16.0,17,0.00,,,0.00,,2013-05-29 20:02:00,
2013-05-29 13:11:00,91.0,39.0,29.61,SSW,205,5.0,15.0,16,0.00,,,0.00,,2013-05-29 20:11:00,
2013-05-29 13:22:00,91.0,39.0,29.61,SSW,205,5.0,15.0,16,0.00,,,0.00,,2013-05-29 20:22:00,
2013-05-29 13:32:00,92.0,38.0,29.60,WSW,239,7.0,13.0,15,0.00,,,0.00,,2013-05-29 20:32:00,
2013-05-29 13:41:00,92.0,38.0,29.60,WSW,239,7.0,13.0,15,0.00,,,0.00,,2013-05-29 20:41:00,
2013-05-29 13:52:00,92.0,38.0,29.59,West,272,5.0,14.0,15,0.00,,,0.00,,2013-05-29 20:52:00,
2013-05-29 14:02:00,92.0,38.0,29.59,WSW,252,7.0,19.0,15,0.00,,,0.00,,2013-05-29 21:02:00,
2013-05-29 14:12:00,92.0,38.0,29.59,WSW,252,7.0,19.0,15,0.00,,,0.00,,2013-05-29 21:12:00,
2013-05-29 14:22:00,93.0,37.0,29.58,SSW,201,8.0,13.0,14,0.00,,,0.00,,2013-05-29 21:22:00,
2013-05-29 14:33:00,92.0,34.0,29.58,West,266,7.0,13.0,13,0.00,,,0.00,,2013-05-29 21:33:00,
2013-05-29 14:43:00,92.0,34.0,29.58,West,266,7.0,13.0,13,0.00,,,0.00,,2013-05-29 21:43:00,
2013-05-29 14:53:00,92.0,36.0,29.57,NW,306,8.0,17.0,14,0.00,,,0.00,,2013-05-29 21:53:00,
2013-05-29 15:03:00,93.0,35.0,29.57,West,269,6.0,15.0,13,0.00,,,0.00,,2013-05-29 22:03:00,
2013-05-29 15:12:00,93.0,35.0,29.57,West,269,6.0,15.0,13,0.00,,,0.00,,2013-05-29 22:12:00,
2013-05-29 15:22:00,92.0,32.0,29.57,West,278,7.0,16.0,12,0.00,,,0.00,,2013-05-29 22:22:00,
2013-05-29 15:33:00,93.0,33.0,29.57,WNW,286,8.0,17.0,12,0.00,,,0.00,,2013-05-29 22:33:00,
2013-05-29 15:42:00,92.0,32.0,29.56,WNW,292,6.0,14.0,12,0.00,,,0.00,,2013-05-29 22:42:00,
2013-05-29 15:52:00,92.0,32.0,29.56,WNW,292,6.0,14.0,12,0.00,,,0.00,,2013-05-29 22:52:00,
2013-05-29 16:02:00,92.0,34.0,29.56,West,268,7.0,14.0,13,0.00,,,0.00,,2013-05-29 23:02:00,
2013-05-29 16:12:00,92.0,34.0,29.56,West,268,7.0,14.0,13,0.00,,,0.00,,2013-05-29 23:12:00,
2013-05-29 16:21:00,94.0,34.0,29.55,West,279,5.0,13.0,12,0.00,,,0.00,,2013-05-29 23:21:00,
2013-05-29 16:33:00,93.0,35.0,29.55,NNW,331,7.0,13.0,13,0.00,,,0.00,,2013-05-29 23:33:00,
2013-05-29 16:42:00,92.0,34.0,29.54,West,278,5.0,11.0,13,0.00,,,0.00,,2013-05-29 23:42:00,
2013-05-29 16:53:00,92.0,34.0,29.54,West,278,5.0,11.0,13,0.00,,,0.00,,2013-05-29 23:53:00,
2013-05-29 17:01:00,91.0,33.0,29.54,West,280,6.0,15.0,13,0.00,,,0.00,,2013-05-30 00:01:00,
2013-05-29 17:11:00,91.0,33.0,29.54,West,280,6.0,15.0,13,0.00,,,0.00,,2013-05-30 00:11:00,
2013-05-29 17:21:00,92.0,34.0,29.54,WNW,294,7.0,13.0,13,0.00,,,0.00,,2013-05-30 00:21:00,
2013-05-29 17:31:00,92.0,36.0,29.54,NNW,330,6.0,14.0,14,0.00,,,0.00,,2013-05-30 00:31:00,
2013-05-29 17:41:00,92.0,36.0,29.54,NNW,330,6.0,14.0,14,0.00,,,0.00,,2013-05-30 00:41:00,
2013-05-29 17:52:00,92.0,36.0,29.54,WNW,290,8.0,14.0,14,0.00,,,0.00,,2013-05-30 00:52:00,
2013-05-29 18:01:00,91.0,35.0,29.54,WSW,245,6.0,13.0,14,0.00,,,0.00,,2013-05-30 01:01:00,
2013-05-29 18:11:00,91.0,35.0,29.54,WSW,245,6.0,13.0,14,0.00,,,0.00,,2013-05-30 01:11:00,
2013-05-29 18:21:00,91.0,33.0,29.54,West,269,6.0,12.0,13,0.00,,,0.00,,2013-05-30 01:21:00,
2013-05-29 18:31:00,91.0,33.0,29.54,WSW,255,6.0,14.0,13,0.00,,,0.00,,2013-05-30 01:31:00,
2013-05-29 18:41:00,91.0,33.0,29.54,WSW,255,6.0,14.0,13,0.00,,,0.00,,2013-05-30 01:41:00,
2013-05-29 18:52:00,90.0,33.0,29.53,West,272,5.0,14.0,13,0.00,,,0.00,,2013-05-30 01:52:00,
2013-05-29 19:01:00,89.0,34.0,29.54,WNW,294,6.0,13.0,14,0.00,,,0.00,,2013-05-30 02:01:00,
2013-05-29 19:11:00,89.0,34.0,29.54,WNW,294,6.0,13.0,14,0.00,,,0.00,,2013-05-30 02:11:00,
2013-05-29 19:21:00,88.0,33.0,29.53,NW,305,3.0,10.0,14,0.00,,,0.00,,2013-05-30 02:21:00,
2013-05-29 19:31:00,87.0,34.0,29.54,West,274,3.0,7.0,15,0.00,,,0.00,,2013-05-30 02:31:00,
2013-05-29 19:42:00,87.0,34.0,29.54,West,274,3.0,7.0,15,0.00,,,0.00,,2013-05-30 02:42:00,
2013-05-29 19:52:00,87.0,34.0,29.54,West,274,3.0,7.0,15,0.00,,,0.00,,2013-05-30 02:52:00,
2013-05-29 20:01:00,85.0,34.0,29.54,West,277,3.0,8.0,16,0.00,,,0.00,,2013-05-30 03:01:00,
2013-05-29 20:11:00,85.0,34.0,29.55,WNW,293,4.0,9.0,16,0.00,,,0.00,,2013-05-30 03:11:00,
2013-05-29 20:21:00,85.0,34.0,29.55,WNW,293,4.0,9.0,16,0.00,,,0.00,,2013-05-30 03:21:00,
2013-05-29 20:32:00,84.0,34.0,29.55,West,276,2.0,9.0,17,0.00,,,0.00,,2013-05-30 03:32:00,
2013-05-29 20:43:00,84.0,34.0,29.55,West,276,2.0,9.0,17,0.00,,,0.00,,2013-05-30 03:43:00,
2013-05-29 20:53:00,83.0,35.0,29.56,West,276,2.0,5.0,18,0.00,,,0.00,,2013-05-30 03:53:00,
2013-05-29 21:02:00,83.0,35.0,29.56,WNW,283,2.0,5.0,18,0.00,,,0.00,,2013-05-30 04:02:00,
2013-05-29 21:12:00,83.0,35.0,29.56,WNW,283,2.0,5.0,18,0.00,,,0.00,,2013-05-30 04:12:00,
2013-05-29 21:22:00,81.0,35.0,29.58,West,277,1.0,4.0,19,0.00,,,0.00,,2013-05-30 04:22:00,
2013-05-29 21:32:00,81.0,35.0,29.58,West,278,1.0,4.0,19,0.00,,,0.00,,2013-05-30 04:32:00,
2013-05-29 21:42:00,81.0,35.0,29.58,West,278,1.0,4.0,19,0.00,,,0.00,,2013-05-30 04:42:00,
2013-05-29 21:53:00,79.0,34.0,29.59,WSW,249,1.0,6.0,20,0.00,,,0.00,,2013-05-30 04:53:00,
2013-05-29 22:02:00,81.0,37.0,29.60,West,280,3.0,9.0,21,0.00,,,0.00,,2013-05-30 05:02:00,
2013-05-29 22:12:00,81.0,37.0,29.60,West,280,3.0,9.0,21,0.00,,,0.00,,2013-05-30 05:12:00,
2013-05-29 22:21:00,81.0,42.0,29.61,WSW,238,6.0,11.0,25,0.00,,,0.00,,2013-05-30 05:21:00,
2013-05-29 22:32:00,81.0,48.0,29.61,WSW,257,6.0,11.0,32,0.00,,,0.00,,2013-05-30 05:32:00,
2013-05-29 22:52:00,80.0,50.0,29.62,WSW,245,6.0,12.0,35,0.00,,,0.00,,2013-05-30 05:52:00,
2013-05-29 23:01:00,80.0,51.0,29.62,West,263,6.0,12.0,36,0.00,,,0.00,,2013-05-30 06:01:00,
2013-05-29 23:12:00,80.0,51.0,29.62,West,263,6.0,12.0,36,0.00,,,0.00,,2013-05-30 06:12:00,
2013-05-29 23:21:00,80.0,51.0,29.62,NW,324,6.0,12.0,37,0.00,,,0.00,,2013-05-30 06:21:00,
2013-05-29 23:32:00,79.0,50.0,29.62,WNW,297,5.0,12.0,37,0.00,,,0.00,,2013-05-30 06:32:00,
2013-05-29 23:41:00,79.0,50.0,29.62,WNW,297,5.0,12.0,37,0.00,,,0.00,,2013-05-30 06:41:00,
2013-05-29 23:52:00,78.0,50.0,29.62,WSW,245,2.0,5.0,38,0.00,,,0.00,,2013-05-30 06:52:00,